Flag Weather past 2 weeks in Yuzhno-Sakhalinsk, Russia

Now
21 °F

Clear.


Feels Like: 21 °F
Forecast: 11 / 30 °F
Wind: No wind

Location: Yuzhno Airport-Sakhalinsk

Current Time: Nov 24, 2014 at 7:44:41 PM

Latest Report: Nov 24, 2014 at 7:00 PM


Visibility: N/A

Pressure: 29.98 "Hg

Humidity: 80%

Dew point: 16 °F

Location of Yuzhno-SakhalinskLocation

Historic Weather in Yuzhno-Sakhalinsk — Graph

°F

Yuzhno-Sakhalinsk temperature yesterday

Maximum temperature yesterday: 32 °F (at 10:00 AM)
Minimum temperature yesterday: 21 °F (at 7:00 AM)
Average temperature yesterday: 28 °F

Past Weeks' High & Low Weather Summary

 TemperatureHumidityPressure
High52 °F (Nov 10, 2:30 PM)100% (Nov 11, 4:00 AM)30.24 "Hg (Nov 11, 4:00 AM)
Low9 °F (Nov 24, 6:30 AM)24% (Nov 10, 2:30 PM)29.09 "Hg (Nov 13, 8:00 PM)
Average31 °F79%29.92 "Hg
* Reported Nov 9 6:00 PM — Nov 24 6:30 PM, Yuzhno-Sakhalinsk, Weather by CustomWeather, © 2014

Note: Actual official high and low records may vary slightly from our data, if they occured in-between our weather recording intervals... More about our weather records

Advertising

Yuzhno-Sakhalinsk weather history for previous 24 hours

 ConditionsComfort  
Time TempWeatherWind HumidityBarometerVisibility
6:30 PM
Nov 24
21 °FClear.No wind86%29.98 "HgN/A
6:00 PM23 °FClear.No wind80%29.98 "HgN/A
5:30 PM27 °FClear.No wind74%29.98 "HgN/A
5:00 PM28 °FSunny.3 mph69%29.98 "HgN/A
4:30 PM32 °FPassing clouds.3 mph60%29.98 "HgN/A
4:00 PM34 °FPassing clouds.3 mph51%29.98 "HgN/A
3:30 PM34 °FPassing clouds.6 mph56%29.98 "HgN/A
3:00 PM34 °FPassing clouds.3 mph56%29.98 "HgN/A
2:30 PM34 °FScattered clouds.1 mph56%30.01 "HgN/A
2:00 PM34 °FPassing clouds.1 mph56%30.01 "HgN/A
1:30 PM34 °FPassing clouds.3 mph56%30.01 "HgN/A
1:00 PM34 °FPassing clouds.No wind60%30.01 "HgN/A
12:30 PM32 °FPassing clouds.1 mph64%30.04 "HgN/A
12:00 PM32 °FPassing clouds.No wind69%30.04 "HgN/A
11:30 AM28 °FPassing clouds.No wind74%30.07 "Hg5 mi
11:00 AM28 °FPassing clouds.No wind80%30.07 "Hg4 mi
10:30 AM25 °FPassing clouds.No wind86%30.07 "Hg2 mi
10:00 AM21 °FIce fog.No wind93%30.09 "Hg2 mi
9:30 AM21 °FIce fog.No wind93%30.09 "Hg3 mi
9:00 AM18 °FIce fog.3 mph93%30.09 "Hg3 mi
8:30 AM10 °FPassing clouds.No wind92%30.09 "Hg4 mi
8:00 AM10 °FPassing clouds.No wind92%30.09 "Hg4 mi
7:30 AM10 °FPassing clouds.No wind92%30.07 "Hg5 mi
7:00 AM10 °FPassing clouds.No wind85%30.09 "HgN/A
6:30 AM9 °FPassing clouds.No wind92%30.09 "HgN/A
6:00 AM10 °FPassing clouds.1 mph85%30.09 "HgN/A
5:30 AM10 °FPassing clouds.No wind92%30.09 "HgN/A
5:00 AM10 °FPassing clouds.No wind92%30.09 "HgN/A
4:00 AM12 °FPassing clouds.3 mph92%30.09 "HgN/A
3:00 AM16 °FPassing clouds.3 mph86%30.12 "HgN/A
2:00 AM18 °FPassing clouds.6 mph93%30.12 "HgN/A
1:00 AM14 °FPassing clouds.No wind92%30.12 "HgN/A
12:00 AM18 °FPassing clouds.1 mph86%30.12 "HgN/A
11:00 PM
Nov 23
21 °FPassing clouds.1 mph80%30.12 "HgN/A
10:00 PM25 °FPassing clouds.No wind74%30.12 "HgN/A
9:00 PM27 °FPassing clouds.3 mph69%30.12 "HgN/A
8:30 PM27 °FPassing clouds.3 mph69%30.12 "HgN/A
8:00 PM28 °FSnow flurries. Passing clouds.3 mph64%30.12 "HgN/A
7:30 PM28 °FSnow flurries. Passing clouds.3 mph69%30.12 "HgN/A
7:00 PM28 °FSnow flurries. Passing clouds.6 mph69%30.12 "HgN/A
Weather by CustomWeather, © 2014

See weather overviewHow to use our weather pages